Time,TemperatureF,DewpointF,PressureIn,WindDirection,WindDirectionDegrees,WindSpeedMPH,WindSpeedGustMPH,Humidity,HourlyPrecipIn,Conditions,Clouds,dailyrainin,SoftwareType,DateUTC
2013-03-08 00:01:00,40.0,27.6,29.80,NNW,342,0.0,4.0,61,0.00,,,0.00,WUHU216DAVISVP2,2013-03-08 08:01:00,
2013-03-08 00:06:00,40.1,27.7,29.80,NNW,342,4.0,4.0,61,0.00,,,0.00,WUHU216DAVISVP2,2013-03-08 08:06:00,
2013-03-08 00:11:00,40.5,28.1,29.79,NNW,332,6.0,6.0,61,0.00,,,0.00,WUHU216DAVISVP2,2013-03-08 08:11:00,
2013-03-08 00:16:00,40.7,28.0,29.79,NW,323,6.0,7.0,60,0.00,,,0.00,WUHU216DAVISVP2,2013-03-08 08:16:00,
2013-03-08 00:21:00,40.8,28.0,29.79,NW,326,5.0,7.0,60,0.00,,,0.00,WUHU216DAVISVP2,2013-03-08 08:21:00,
2013-03-08 00:26:00,40.9,28.1,29.79,NNW,327,5.0,7.0,60,0.00,,,0.00,WUHU216DAVISVP2,2013-03-08 08:26:00,
2013-03-08 00:31:00,41.0,28.2,29.79,NNW,327,3.0,7.0,60,0.00,,,0.00,WUHU216DAVISVP2,2013-03-08 08:31:00,
2013-03-08 00:36:00,41.1,28.3,29.79,NNW,327,5.0,7.0,60,0.00,,,0.00,WUHU216DAVISVP2,2013-03-08 08:36:00,
2013-03-08 00:41:00,41.1,28.3,29.79,NNW,327,5.0,7.0,60,0.00,,,0.00,WUHU216DAVISVP2,2013-03-08 08:41:00,
2013-03-08 00:46:00,41.2,28.4,29.79,NNW,327,5.0,6.0,60,0.00,,,0.00,WUHU216DAVISVP2,2013-03-08 08:46:00,
2013-03-08 00:51:00,41.2,28.4,29.78,NNW,327,6.0,6.0,60,0.00,,,0.00,WUHU216DAVISVP2,2013-03-08 08:51:00,
2013-03-08 00:57:00,41.2,28.4,29.78,NNW,331,6.0,7.0,60,0.00,,,0.00,WUHU216DAVISVP2,2013-03-08 08:57:00,
2013-03-08 01:02:00,41.1,28.3,29.78,NNW,332,4.0,7.0,60,0.00,,,0.00,WUHU216DAVISVP2,2013-03-08 09:02:00,
2013-03-08 01:07:00,41.2,28.4,29.78,NNW,332,0.0,7.0,60,0.00,,,0.00,WUHU216DAVISVP2,2013-03-08 09:07:00,
2013-03-08 01:12:00,41.0,28.2,29.78,NNW,332,0.0,7.0,60,0.00,,,0.00,WUHU216DAVISVP2,2013-03-08 09:12:00,
2013-03-08 01:17:00,40.8,28.0,29.78,NNW,332,2.0,7.0,60,0.00,,,0.00,WUHU216DAVISVP2,2013-03-08 09:17:00,
2013-03-08 01:22:00,40.7,27.9,29.78,NNW,332,1.0,5.0,60,0.00,,,0.00,WUHU216DAVISVP2,2013-03-08 09:22:00,
2013-03-08 01:27:00,40.6,28.3,29.77,NNW,332,0.0,4.0,61,0.00,,,0.00,WUHU216DAVISVP2,2013-03-08 09:27:00,
2013-03-08 01:32:00,40.6,28.3,29.77,NNW,332,0.0,4.0,61,0.00,,,0.00,WUHU216DAVISVP2,2013-03-08 09:32:00,
2013-03-08 01:37:00,40.4,28.1,29.77,NNW,332,0.0,4.0,61,0.00,,,0.00,WUHU216DAVISVP2,2013-03-08 09:37:00,
2013-03-08 01:42:00,40.3,28.0,29.76,NNW,332,0.0,1.0,61,0.00,,,0.00,WUHU216DAVISVP2,2013-03-08 09:42:00,
2013-03-08 01:47:00,40.2,27.9,29.77,NNW,332,0.0,0.0,61,0.00,,,0.00,WUHU216DAVISVP2,2013-03-08 09:47:00,
2013-03-08 01:53:00,40.2,27.9,29.76,NNW,332,0.0,0.0,61,0.00,,,0.00,WUHU216DAVISVP2,2013-03-08 09:53:00,
2013-03-08 01:58:00,40.0,27.7,29.76,NNW,332,1.0,3.0,61,0.00,,,0.00,WUHU216DAVISVP2,2013-03-08 09:58:00,
2013-03-08 02:03:00,40.0,27.7,29.76,NNW,332,1.0,3.0,61,0.00,,,0.00,WUHU216DAVISVP2,2013-03-08 10:03:00,
2013-03-08 02:08:00,39.8,27.5,29.75,NNW,332,0.0,3.0,61,0.00,,,0.00,WUHU216DAVISVP2,2013-03-08 10:08:00,
2013-03-08 02:13:00,39.8,27.5,29.75,NNW,332,0.0,3.0,61,0.00,,,0.00,WUHU216DAVISVP2,2013-03-08 10:13:00,
2013-03-08 02:18:00,39.7,27.4,29.75,NNW,332,1.0,3.0,61,0.00,,,0.00,WUHU216DAVISVP2,2013-03-08 10:18:00,
2013-03-08 02:23:00,39.7,27.8,29.74,NNW,332,3.0,3.0,62,0.00,,,0.00,WUHU216DAVISVP2,2013-03-08 10:23:00,
2013-03-08 02:28:00,39.5,27.2,29.74,NNW,332,3.0,4.0,61,0.00,,,0.00,WUHU216DAVISVP2,2013-03-08 10:28:00,
2013-03-08 02:33:00,39.0,26.8,29.74,NNW,332,3.0,4.0,61,0.00,,,0.00,WUHU216DAVISVP2,2013-03-08 10:33:00,
2013-03-08 02:38:00,38.7,26.9,29.74,NNW,332,3.0,5.0,62,0.00,,,0.00,WUHU216DAVISVP2,2013-03-08 10:38:00,
2013-03-08 02:43:00,38.6,26.8,29.73,NNW,332,5.0,6.0,62,0.00,,,0.00,WUHU216DAVISVP2,2013-03-08 10:43:00,
2013-03-08 02:49:00,38.5,27.1,29.73,NNW,333,5.0,6.0,63,0.00,,,0.00,WUHU216DAVISVP2,2013-03-08 10:49:00,
2013-03-08 02:54:00,38.9,27.4,29.73,NNW,333,5.0,6.0,63,0.00,,,0.00,WUHU216DAVISVP2,2013-03-08 10:54:00,
2013-03-08 02:59:00,38.9,27.1,29.72,NNW,333,2.0,6.0,62,0.00,,,0.00,WUHU216DAVISVP2,2013-03-08 10:59:00,
2013-03-08 03:04:00,38.9,27.1,29.72,NNW,333,3.0,6.0,62,0.00,,,0.00,WUHU216DAVISVP2,2013-03-08 11:04:00,
2013-03-08 03:09:00,39.1,27.6,29.72,NNW,335,8.0,9.0,63,0.00,,,0.00,WUHU216DAVISVP2,2013-03-08 11:09:00,
2013-03-08 03:14:00,39.4,27.9,29.72,NNW,336,7.0,9.0,63,0.00,,,0.00,WUHU216DAVISVP2,2013-03-08 11:14:00,
2013-03-08 03:19:00,39.6,28.1,29.72,NNW,336,5.0,9.0,63,0.00,,,0.00,WUHU216DAVISVP2,2013-03-08 11:19:00,
2013-03-08 03:24:00,39.8,28.3,29.71,NNW,336,3.0,9.0,63,0.00,,,0.00,WUHU216DAVISVP2,2013-03-08 11:24:00,
2013-03-08 03:29:00,40.0,28.5,29.71,NNW,338,4.0,8.0,63,0.00,,,0.00,WUHU216DAVISVP2,2013-03-08 11:29:00,
2013-03-08 03:34:00,40.3,28.4,29.71,NNW,347,5.0,6.0,62,0.00,,,0.00,WUHU216DAVISVP2,2013-03-08 11:34:00,
2013-03-08 03:39:00,40.6,28.7,29.71,NNW,347,4.0,6.0,62,0.00,,,0.00,WUHU216DAVISVP2,2013-03-08 11:39:00,
2013-03-08 03:44:00,40.8,28.5,29.70,NNW,347,3.0,6.0,61,0.00,,,0.00,WUHU216DAVISVP2,2013-03-08 11:44:00,
2013-03-08 03:50:00,41.0,28.6,29.71,NNW,346,4.0,6.0,61,0.00,,,0.00,WUHU216DAVISVP2,2013-03-08 11:50:00,
2013-03-08 03:55:00,41.3,28.9,29.71,NNW,346,0.0,6.0,61,0.00,,,0.00,WUHU216DAVISVP2,2013-03-08 11:55:00,
2013-03-08 04:00:00,41.5,29.1,29.72,NNW,346,0.0,6.0,61,0.00,,,0.00,WUHU216DAVISVP2,2013-03-08 12:00:00,
2013-03-08 04:05:00,41.8,29.0,29.72,NNW,346,0.0,6.0,60,0.00,,,0.00,WUHU216DAVISVP2,2013-03-08 12:05:00,
2013-03-08 04:10:00,42.0,29.2,29.73,NNW,346,0.0,6.0,60,0.00,,,0.00,WUHU216DAVISVP2,2013-03-08 12:10:00,
2013-03-08 04:15:00,41.9,28.6,29.72,NNW,346,0.0,4.0,59,0.00,,,0.00,WUHU216DAVISVP2,2013-03-08 12:15:00,
2013-03-08 04:20:00,41.9,29.0,29.72,NNW,346,3.0,4.0,60,0.00,,,0.00,WUHU216DAVISVP2,2013-03-08 12:20:00,
2013-03-08 04:25:00,41.9,29.0,29.72,NNW,346,4.0,4.0,60,0.00,,,0.00,WUHU216DAVISVP2,2013-03-08 12:25:00,
2013-03-08 04:30:00,41.8,30.1,29.72,NNW,343,3.0,6.0,63,0.00,,,0.00,WUHU216DAVISVP2,2013-03-08 12:30:00,
2013-03-08 04:35:00,41.6,30.7,29.72,NNW,343,2.0,6.0,65,0.00,,,0.00,WUHU216DAVISVP2,2013-03-08 12:35:00,
2013-03-08 04:40:00,41.4,31.3,29.72,NNW,343,1.0,6.0,67,0.00,,,0.00,WUHU216DAVISVP2,2013-03-08 12:40:00,
2013-03-08 04:45:00,41.2,31.4,29.72,NNW,343,3.0,6.0,68,0.00,,,0.00,WUHU216DAVISVP2,2013-03-08 12:45:00,
2013-03-08 04:51:00,40.9,32.2,29.72,NNW,343,2.0,5.0,71,0.00,,,0.00,WUHU216DAVISVP2,2013-03-08 12:51:00,
2013-03-08 04:56:00,40.7,32.4,29.72,NNW,343,0.0,4.0,72,0.00,,,0.00,WUHU216DAVISVP2,2013-03-08 12:56:00,
2013-03-08 05:01:00,40.6,32.3,29.72,NNW,343,2.0,4.0,72,0.00,,,0.00,WUHU216DAVISVP2,2013-03-08 13:01:00,
2013-03-08 05:06:00,40.6,32.3,29.72,NNW,343,0.0,4.0,72,0.00,,,0.00,WUHU216DAVISVP2,2013-03-08 13:06:00,
2013-03-08 05:11:00,40.6,32.7,29.72,NNW,343,0.0,3.0,73,0.00,,,0.00,WUHU216DAVISVP2,2013-03-08 13:11:00,
2013-03-08 05:16:00,40.5,32.9,29.72,NNW,343,0.0,3.0,74,0.00,,,0.00,WUHU216DAVISVP2,2013-03-08 13:16:00,
2013-03-08 05:21:00,40.5,32.6,29.72,NNW,343,0.0,3.0,73,0.00,,,0.00,WUHU216DAVISVP2,2013-03-08 13:21:00,
2013-03-08 05:26:00,40.7,32.8,29.72,South,191,6.0,7.0,73,0.01,,,0.01,WUHU216DAVISVP2,2013-03-08 13:26:00,
2013-03-08 05:31:00,40.8,32.9,29.73,South,191,5.0,7.0,73,0.01,,,0.01,WUHU216DAVISVP2,2013-03-08 13:31:00,
2013-03-08 05:36:00,40.9,33.0,29.73,SSW,192,4.0,7.0,73,0.01,,,0.01,WUHU216DAVISVP2,2013-03-08 13:36:00,
2013-03-08 05:42:00,41.0,33.4,29.73,SW,227,8.0,9.0,74,0.01,,,0.01,WUHU216DAVISVP2,2013-03-08 13:42:00,
2013-03-08 05:47:00,40.8,33.2,29.72,West,263,7.0,9.0,74,0.01,,,0.01,WUHU216DAVISVP2,2013-03-08 13:47:00,
2013-03-08 05:52:00,40.6,34.0,29.71,WNW,296,6.0,9.0,77,0.01,,,0.01,WUHU216DAVISVP2,2013-03-08 13:52:00,
2013-03-08 05:57:00,40.6,34.3,29.72,NW,315,4.0,9.0,78,0.01,,,0.01,WUHU216DAVISVP2,2013-03-08 13:57:00,
2013-03-08 06:02:00,40.6,34.3,29.72,NNW,329,0.0,9.0,78,0.01,,,0.01,WUHU216DAVISVP2,2013-03-08 14:02:00,
2013-03-08 06:07:00,40.6,34.3,29.72,NNW,329,1.0,9.0,78,0.01,,,0.01,WUHU216DAVISVP2,2013-03-08 14:07:00,
2013-03-08 06:12:00,40.6,34.3,29.72,NNW,329,2.0,9.0,78,0.01,,,0.01,WUHU216DAVISVP2,2013-03-08 14:12:00,
2013-03-08 06:17:00,40.5,34.5,29.72,NNW,329,3.0,5.0,79,0.01,,,0.01,WUHU216DAVISVP2,2013-03-08 14:17:00,
2013-03-08 06:22:00,40.6,34.0,29.72,NNW,329,3.0,4.0,77,0.01,,,0.01,WUHU216DAVISVP2,2013-03-08 14:22:00,
2013-03-08 06:27:00,40.8,33.5,29.72,NNW,329,3.0,7.0,75,0.00,,,0.01,WUHU216DAVISVP2,2013-03-08 14:27:00,
2013-03-08 06:32:00,41.0,34.1,29.72,NNW,329,0.0,7.0,76,0.01,,,0.02,WUHU216DAVISVP2,2013-03-08 14:32:00,
2013-03-08 06:37:00,40.9,34.3,29.72,NNW,329,0.0,7.0,77,0.01,,,0.02,WUHU216DAVISVP2,2013-03-08 14:37:00,
2013-03-08 06:42:00,40.8,34.5,29.72,NW,316,5.0,7.0,78,0.01,,,0.02,WUHU216DAVISVP2,2013-03-08 14:42:00,
2013-03-08 06:48:00,40.5,34.5,29.72,SW,221,3.0,8.0,79,0.01,,,0.02,WUHU216DAVISVP2,2013-03-08 14:48:00,
2013-03-08 06:53:00,40.1,33.8,29.73,SW,224,3.0,8.0,78,0.02,,,0.03,WUHU216DAVISVP2,2013-03-08 14:53:00,
2013-03-08 06:58:00,39.5,33.2,29.73,SW,216,8.0,13.0,78,0.02,,,0.03,WUHU216DAVISVP2,2013-03-08 14:58:00,
2013-03-08 07:03:00,38.8,32.9,29.73,WSW,244,9.0,13.0,79,0.02,,,0.03,WUHU216DAVISVP2,2013-03-08 15:03:00,
2013-03-08 07:08:00,38.7,33.1,29.73,WSW,244,8.0,14.0,80,0.02,,,0.03,WUHU216DAVISVP2,2013-03-08 15:08:00,
2013-03-08 07:13:00,38.6,33.3,29.73,SW,232,8.0,14.0,81,0.02,,,0.03,WUHU216DAVISVP2,2013-03-08 15:13:00,
2013-03-08 07:18:00,38.5,33.2,29.74,SSW,212,7.0,14.0,81,0.02,,,0.03,WUHU216DAVISVP2,2013-03-08 15:18:00,
2013-03-08 07:23:00,38.5,33.2,29.74,SSE,150,3.0,14.0,81,0.02,,,0.03,WUHU216DAVISVP2,2013-03-08 15:23:00,
2013-03-08 07:28:00,38.6,33.0,29.75,SSE,150,0.0,11.0,80,0.01,,,0.03,WUHU216DAVISVP2,2013-03-08 15:28:00,
2013-03-08 07:34:00,38.7,33.4,29.75,SSE,150,3.0,9.0,81,0.02,,,0.04,WUHU216DAVISVP2,2013-03-08 15:34:00,
2013-03-08 07:39:00,38.7,33.4,29.76,SSE,150,2.0,6.0,81,0.02,,,0.04,WUHU216DAVISVP2,2013-03-08 15:39:00,
2013-03-08 07:44:00,38.7,33.4,29.76,SSE,150,1.0,4.0,81,0.02,,,0.04,WUHU216DAVISVP2,2013-03-08 15:44:00,
2013-03-08 07:49:00,38.7,33.7,29.77,SSE,150,2.0,4.0,82,0.03,,,0.06,WUHU216DAVISVP2,2013-03-08 15:49:00,
2013-03-08 07:54:00,38.5,33.5,29.77,SSE,150,2.0,4.0,82,0.04,,,0.07,WUHU216DAVISVP2,2013-03-08 15:54:00,
2013-03-08 07:59:00,38.3,33.0,29.78,SSE,150,2.0,5.0,81,0.06,,,0.09,WUHU216DAVISVP2,2013-03-08 15:59:00,
2013-03-08 08:04:00,38.0,32.7,29.78,SSE,150,4.0,5.0,81,0.08,,,0.11,WUHU216DAVISVP2,2013-03-08 16:04:00,
2013-03-08 08:09:00,37.7,32.4,29.78,SSW,209,3.0,7.0,81,0.10,,,0.13,WUHU216DAVISVP2,2013-03-08 16:09:00,
2013-03-08 08:15:00,37.3,32.0,29.78,SSW,210,2.0,7.0,81,0.12,,,0.15,WUHU216DAVISVP2,2013-03-08 16:15:00,
2013-03-08 08:20:00,36.9,31.9,29.79,SSW,209,3.0,7.0,82,0.14,,,0.17,WUHU216DAVISVP2,2013-03-08 16:20:00,
2013-03-08 08:25:00,36.5,31.5,29.79,SE,136,1.0,7.0,82,0.16,,,0.19,WUHU216DAVISVP2,2013-03-08 16:25:00,
2013-03-08 08:30:00,36.3,31.6,29.79,SE,132,4.0,7.0,83,0.17,,,0.20,WUHU216DAVISVP2,2013-03-08 16:30:00,
2013-03-08 08:35:00,35.9,31.2,29.79,SE,132,5.0,7.0,83,0.18,,,0.22,WUHU216DAVISVP2,2013-03-08 16:35:00,
2013-03-08 08:40:00,35.5,31.1,29.79,SE,132,2.0,7.0,84,0.19,,,0.23,WUHU216DAVISVP2,2013-03-08 16:40:00,
2013-03-08 08:46:00,35.3,30.9,29.80,SE,132,3.0,7.0,84,0.19,,,0.24,WUHU216DAVISVP2,2013-03-08 16:46:00,
2013-03-08 08:51:00,35.1,31.0,29.80,SE,132,2.0,6.0,85,0.20,,,0.26,WUHU216DAVISVP2,2013-03-08 16:51:00,
2013-03-08 08:56:00,34.8,30.7,29.80,SE,132,5.0,7.0,85,0.19,,,0.27,WUHU216DAVISVP2,2013-03-08 16:56:00,
2013-03-08 09:01:00,34.6,30.5,29.80,SE,132,3.0,7.0,85,0.18,,,0.28,WUHU216DAVISVP2,2013-03-08 17:01:00,
2013-03-08 09:06:00,34.4,30.6,29.80,SE,132,3.0,7.0,86,0.17,,,0.29,WUHU216DAVISVP2,2013-03-08 17:06:00,
2013-03-08 09:11:00,34.5,30.7,29.81,SE,132,4.0,7.0,86,0.16,,,0.30,WUHU216DAVISVP2,2013-03-08 17:11:00,
2013-03-08 09:16:00,34.7,31.2,29.81,WSW,237,3.0,7.0,87,0.15,,,0.32,WUHU216DAVISVP2,2013-03-08 17:16:00,
2013-03-08 09:21:00,35.0,31.5,29.81,WSW,237,1.0,7.0,87,0.15,,,0.33,WUHU216DAVISVP2,2013-03-08 17:21:00,
2013-03-08 09:26:00,35.4,31.9,29.82,SW,228,7.0,8.0,87,0.16,,,0.35,WUHU216DAVISVP2,2013-03-08 17:26:00,
2013-03-08 09:32:00,35.9,32.1,29.82,SSW,212,7.0,12.0,86,0.15,,,0.36,WUHU216DAVISVP2,2013-03-08 17:32:00,
2013-03-08 09:37:00,36.1,32.3,29.82,SSW,205,6.0,12.0,86,0.16,,,0.38,WUHU216DAVISVP2,2013-03-08 17:37:00,
2013-03-08 09:42:00,35.7,31.6,29.82,SSW,210,4.0,12.0,85,0.17,,,0.40,WUHU216DAVISVP2,2013-03-08 17:42:00,
2013-03-08 09:47:00,35.4,31.3,29.82,SSW,210,4.0,12.0,85,0.16,,,0.41,WUHU216DAVISVP2,2013-03-08 17:47:00,
2013-03-08 09:52:00,35.7,32.2,29.82,SSW,210,1.0,12.0,87,0.16,,,0.42,WUHU216DAVISVP2,2013-03-08 17:52:00,
2013-03-08 09:57:00,35.7,31.9,29.82,SSW,210,0.0,6.0,86,0.16,,,0.43,WUHU216DAVISVP2,2013-03-08 17:57:00,
2013-03-08 10:02:00,35.7,31.9,29.82,SSW,210,0.0,5.0,86,0.16,,,0.44,WUHU216DAVISVP2,2013-03-08 18:02:00,
2013-03-08 10:08:00,35.9,32.4,29.82,SSW,210,0.0,5.0,87,0.14,,,0.44,WUHU216DAVISVP2,2013-03-08 18:08:00,
2013-03-08 10:13:00,36.0,32.5,29.81,SSW,210,0.0,2.0,87,0.14,,,0.45,WUHU216DAVISVP2,2013-03-08 18:13:00,
2013-03-08 10:18:00,36.0,32.5,29.81,SSW,210,0.0,2.0,87,0.14,,,0.46,WUHU216DAVISVP2,2013-03-08 18:18:00,
2013-03-08 10:23:00,36.1,32.6,29.81,SSW,210,3.0,3.0,87,0.12,,,0.46,WUHU216DAVISVP2,2013-03-08 18:23:00,
2013-03-08 10:29:00,36.1,32.6,29.81,SSW,210,4.0,5.0,87,0.11,,,0.47,WUHU216DAVISVP2,2013-03-08 18:29:00,
2013-03-08 10:34:00,36.2,32.7,29.82,SSW,211,4.0,5.0,87,0.11,,,0.48,WUHU216DAVISVP2,2013-03-08 18:34:00,
2013-03-08 10:39:00,36.0,32.5,29.81,SSW,211,5.0,5.0,87,0.09,,,0.48,WUHU216DAVISVP2,2013-03-08 18:39:00,
2013-03-08 10:44:00,36.0,32.5,29.81,NNW,335,5.0,6.0,87,0.09,,,0.49,WUHU216DAVISVP2,2013-03-08 18:44:00,
2013-03-08 10:49:00,36.1,32.6,29.81,NNW,335,4.0,6.0,87,0.07,,,0.49,WUHU216DAVISVP2,2013-03-08 18:49:00,
2013-03-08 10:54:00,36.2,32.7,29.81,NNW,335,4.0,6.0,87,0.07,,,0.50,WUHU216DAVISVP2,2013-03-08 18:54:00,
2013-03-08 10:59:00,36.3,32.8,29.81,NNW,342,5.0,7.0,87,0.06,,,0.51,WUHU216DAVISVP2,2013-03-08 18:59:00,
2013-03-08 11:04:00,36.6,33.3,29.81,North,360,4.0,7.0,88,0.07,,,0.51,WUHU216DAVISVP2,2013-03-08 19:04:00,
2013-03-08 11:10:00,36.8,33.5,29.81,North,360,2.0,7.0,88,0.06,,,0.51,WUHU216DAVISVP2,2013-03-08 19:10:00,
2013-03-08 11:15:00,37.0,33.5,29.81,North,360,4.0,7.0,87,0.06,,,0.51,WUHU216DAVISVP2,2013-03-08 19:15:00,
2013-03-08 11:20:00,37.3,33.8,29.81,North,360,3.0,6.0,87,0.05,,,0.51,WUHU216DAVISVP2,2013-03-08 19:20:00,
2013-03-08 11:25:00,37.7,34.1,29.82,North,11,2.0,5.0,87,0.04,,,0.51,WUHU216DAVISVP2,2013-03-08 19:25:00,
2013-03-08 11:30:00,37.9,34.1,29.82,ENE,61,3.0,5.0,86,0.04,,,0.51,WUHU216DAVISVP2,2013-03-08 19:30:00,
2013-03-08 11:35:00,38.0,33.9,29.82,ENE,74,2.0,7.0,85,0.04,,,0.52,WUHU216DAVISVP2,2013-03-08 19:35:00,
2013-03-08 11:41:00,38.0,33.9,29.82,ENE,74,3.0,7.0,85,0.04,,,0.52,WUHU216DAVISVP2,2013-03-08 19:41:00,
2013-03-08 11:46:00,38.1,34.0,29.81,ENE,74,2.0,7.0,85,0.03,,,0.52,WUHU216DAVISVP2,2013-03-08 19:46:00,
2013-03-08 11:51:00,38.2,34.4,29.81,ENE,74,2.0,7.0,86,0.03,,,0.53,WUHU216DAVISVP2,2013-03-08 19:51:00,
2013-03-08 11:56:00,38.3,34.5,29.81,ENE,74,2.0,5.0,86,0.03,,,0.53,WUHU216DAVISVP2,2013-03-08 19:56:00,
2013-03-08 12:01:00,38.4,34.6,29.81,ENE,75,5.0,7.0,86,0.02,,,0.53,WUHU216DAVISVP2,2013-03-08 20:01:00,
2013-03-08 12:06:00,38.5,34.4,29.82,ENE,75,2.0,7.0,85,0.02,,,0.53,WUHU216DAVISVP2,2013-03-08 20:06:00,
2013-03-08 12:11:00,38.8,34.9,29.82,ENE,75,5.0,7.0,86,0.02,,,0.53,WUHU216DAVISVP2,2013-03-08 20:11:00,
2013-03-08 12:16:00,38.9,35.0,29.82,ENE,75,5.0,7.0,86,0.02,,,0.53,WUHU216DAVISVP2,2013-03-08 20:16:00,
2013-03-08 12:21:00,39.0,34.9,29.81,ENE,76,5.0,7.0,85,0.02,,,0.53,WUHU216DAVISVP2,2013-03-08 20:21:00,
2013-03-08 12:26:00,39.2,35.1,29.81,ENE,77,4.0,7.0,85,0.02,,,0.53,WUHU216DAVISVP2,2013-03-08 20:26:00,
2013-03-08 12:31:00,39.3,35.1,29.82,ENE,77,2.0,7.0,85,0.01,,,0.53,WUHU216DAVISVP2,2013-03-08 20:31:00,
2013-03-08 12:37:00,39.5,35.1,29.81,East,81,3.0,7.0,84,0.01,,,0.53,WUHU216DAVISVP2,2013-03-08 20:37:00,
2013-03-08 12:42:00,39.7,34.7,29.81,South,178,4.0,7.0,82,0.01,,,0.53,WUHU216DAVISVP2,2013-03-08 20:42:00,
2013-03-08 12:47:00,40.0,35.2,29.81,South,173,4.0,7.0,83,0.01,,,0.53,WUHU216DAVISVP2,2013-03-08 20:47:00,
2013-03-08 12:52:00,40.0,35.0,29.81,South,180,5.0,8.0,82,0.00,,,0.53,WUHU216DAVISVP2,2013-03-08 20:52:00,
2013-03-08 12:57:00,40.1,35.0,29.81,South,180,5.0,8.0,82,0.00,,,0.53,WUHU216DAVISVP2,2013-03-08 20:57:00,
2013-03-08 13:02:00,40.4,35.6,29.81,South,180,3.0,8.0,83,0.00,,,0.53,WUHU216DAVISVP2,2013-03-08 21:02:00,
2013-03-08 13:07:00,40.5,35.7,29.80,South,179,3.0,8.0,83,0.00,,,0.53,WUHU216DAVISVP2,2013-03-08 21:07:00,
2013-03-08 13:12:00,40.7,35.9,29.80,South,177,5.0,6.0,83,0.00,,,0.53,WUHU216DAVISVP2,2013-03-08 21:12:00,
2013-03-08 13:18:00,40.8,35.4,29.80,SE,131,7.0,8.0,81,0.00,,,0.53,WUHU216DAVISVP2,2013-03-08 21:18:00,
2013-03-08 13:23:00,40.9,35.5,29.80,SE,138,8.0,9.0,81,0.00,,,0.53,WUHU216DAVISVP2,2013-03-08 21:23:00,
2013-03-08 13:28:00,41.0,35.3,29.79,SE,138,7.0,9.0,80,0.00,,,0.53,WUHU216DAVISVP2,2013-03-08 21:28:00,
2013-03-08 13:33:00,41.2,35.8,29.79,SE,138,4.0,9.0,81,0.00,,,0.53,WUHU216DAVISVP2,2013-03-08 21:33:00,
2013-03-08 13:38:00,41.3,35.3,29.79,SE,138,4.0,9.0,79,0.00,,,0.53,WUHU216DAVISVP2,2013-03-08 21:38:00,
2013-03-08 13:43:00,41.8,35.2,29.79,SSE,162,8.0,10.0,77,0.00,,,0.53,WUHU216DAVISVP2,2013-03-08 21:43:00,
2013-03-08 13:48:00,42.4,35.1,29.79,South,184,6.0,11.0,75,0.00,,,0.53,WUHU216DAVISVP2,2013-03-08 21:48:00,
2013-03-08 13:53:00,42.9,34.9,29.79,South,171,8.0,15.0,73,0.00,,,0.53,WUHU216DAVISVP2,2013-03-08 21:53:00,
2013-03-08 13:58:00,43.4,34.0,29.79,SSW,199,6.0,17.0,69,0.00,,,0.53,WUHU216DAVISVP2,2013-03-08 21:58:00,
2013-03-08 14:03:00,43.6,34.9,29.79,SW,225,10.0,18.0,71,0.00,,,0.53,WUHU216DAVISVP2,2013-03-08 22:03:00,
2013-03-08 14:08:00,43.8,35.1,29.79,SW,229,4.0,18.0,71,0.00,,,0.53,WUHU216DAVISVP2,2013-03-08 22:08:00,
2013-03-08 14:14:00,43.8,33.6,29.79,South,186,15.0,18.0,67,0.00,,,0.53,WUHU216DAVISVP2,2013-03-08 22:14:00,
2013-03-08 14:19:00,43.7,33.9,29.79,WSW,237,8.0,18.0,68,0.00,,,0.53,WUHU216DAVISVP2,2013-03-08 22:19:00,
2013-03-08 14:24:00,44.1,34.3,29.79,WSW,238,8.0,17.0,68,0.00,,,0.53,WUHU216DAVISVP2,2013-03-08 22:24:00,
2013-03-08 14:29:00,44.0,34.2,29.79,WSW,237,13.0,19.0,68,0.00,,,0.53,WUHU216DAVISVP2,2013-03-08 22:29:00,
2013-03-08 14:34:00,43.7,34.3,29.80,WSW,248,9.0,19.0,69,0.00,,,0.53,WUHU216DAVISVP2,2013-03-08 22:34:00,
2013-03-08 14:39:00,43.5,34.1,29.79,SW,229,12.0,19.0,69,0.00,,,0.53,WUHU216DAVISVP2,2013-03-08 22:39:00,
2013-03-08 14:44:00,43.6,33.8,29.79,SW,227,8.0,19.0,68,0.00,,,0.53,WUHU216DAVISVP2,2013-03-08 22:44:00,
2013-03-08 14:49:00,43.6,34.2,29.79,SW,224,9.0,19.0,69,0.00,,,0.53,WUHU216DAVISVP2,2013-03-08 22:49:00,
2013-03-08 14:54:00,43.8,34.4,29.79,SW,224,9.0,20.0,69,0.00,,,0.53,WUHU216DAVISVP2,2013-03-08 22:54:00,
2013-03-08 14:59:00,43.9,34.1,29.79,SW,224,16.0,20.0,68,0.00,,,0.53,WUHU216DAVISVP2,2013-03-08 22:59:00,
2013-03-08 15:04:00,43.5,33.7,29.79,SW,218,13.0,21.0,68,0.00,,,0.53,WUHU216DAVISVP2,2013-03-08 23:04:00,
2013-03-08 15:10:00,43.4,34.4,29.79,SW,234,17.0,21.0,70,0.00,,,0.53,WUHU216DAVISVP2,2013-03-08 23:10:00,
2013-03-08 15:15:00,43.2,34.2,29.79,WSW,245,11.0,21.0,70,0.00,,,0.53,WUHU216DAVISVP2,2013-03-08 23:15:00,
2013-03-08 15:20:00,43.3,33.9,29.79,SW,217,14.0,21.0,69,0.00,,,0.53,WUHU216DAVISVP2,2013-03-08 23:20:00,
2013-03-08 15:25:00,43.4,34.0,29.79,SW,228,15.0,20.0,69,0.00,,,0.53,WUHU216DAVISVP2,2013-03-08 23:25:00,
2013-03-08 15:30:00,43.7,34.3,29.79,WSW,238,13.0,20.0,69,0.00,,,0.53,WUHU216DAVISVP2,2013-03-08 23:30:00,
2013-03-08 15:35:00,43.9,34.5,29.79,SW,232,13.0,19.0,69,0.00,,,0.53,WUHU216DAVISVP2,2013-03-08 23:35:00,
2013-03-08 15:40:00,44.1,34.3,29.79,SW,233,8.0,19.0,68,0.00,,,0.53,WUHU216DAVISVP2,2013-03-08 23:40:00,
2013-03-08 15:46:00,44.9,34.7,29.79,SW,230,12.0,19.0,67,0.00,,,0.53,WUHU216DAVISVP2,2013-03-08 23:46:00,
2013-03-08 15:51:00,45.2,35.0,29.78,WSW,241,11.0,19.0,67,0.00,,,0.53,WUHU216DAVISVP2,2013-03-08 23:51:00,
2013-03-08 16:00:00,45.9,34.8,29.78,SW,225,9.0,18.0,65,0.00,,,0.53,WUHU216DAVISVP2,2013-03-09 00:00:00,
2013-03-08 16:05:00,46.5,35.0,29.78,SW,225,9.0,18.0,64,0.00,,,0.53,WUHU216DAVISVP2,2013-03-09 00:05:00,
2013-03-08 16:10:00,47.2,33.6,29.78,WSW,248,8.0,15.0,59,0.00,,,0.53,WUHU216DAVISVP2,2013-03-09 00:10:00,
2013-03-08 16:15:00,47.8,33.3,29.78,SW,225,8.0,15.0,57,0.00,,,0.53,WUHU216DAVISVP2,2013-03-09 00:15:00,
2013-03-08 16:20:00,48.2,33.2,29.77,WNW,293,5.0,13.0,56,0.00,,,0.53,WUHU216DAVISVP2,2013-03-09 00:20:00,
2013-03-08 16:25:00,48.9,32.5,29.77,WSW,248,2.0,13.0,53,0.00,,,0.53,WUHU216DAVISVP2,2013-03-09 00:25:00,
2013-03-08 16:30:00,48.8,32.4,29.77,SW,225,3.0,8.0,53,0.00,,,0.53,WUHU216DAVISVP2,2013-03-09 00:30:00,
2013-03-08 16:35:00,47.9,32.5,29.77,SSW,203,6.0,8.0,55,0.00,,,0.53,WUHU216DAVISVP2,2013-03-09 00:35:00,
2013-03-08 16:40:00,47.4,32.0,29.77,SSW,203,3.0,8.0,55,0.00,,,0.53,WUHU216DAVISVP2,2013-03-09 00:40:00,
2013-03-08 16:45:00,47.4,33.4,29.77,SSW,203,4.0,8.0,58,0.00,,,0.53,WUHU216DAVISVP2,2013-03-09 00:45:00,
2013-03-08 16:50:00,47.3,32.8,29.77,SSW,203,5.0,8.0,57,0.00,,,0.53,WUHU216DAVISVP2,2013-03-09 00:50:00,
2013-03-08 16:55:00,46.1,33.0,29.77,South,180,8.0,12.0,60,0.00,,,0.53,WUHU216DAVISVP2,2013-03-09 00:55:00,
2013-03-08 17:00:00,46.0,33.3,29.78,South,180,5.0,12.0,61,0.00,,,0.53,WUHU216DAVISVP2,2013-03-09 01:00:00,
2013-03-08 17:05:00,45.9,33.6,29.77,SSE,158,5.0,12.0,62,0.00,,,0.53,WUHU216DAVISVP2,2013-03-09 01:05:00,
2013-03-08 17:10:00,46.2,32.7,29.79,South,180,7.0,12.0,59,0.00,,,0.53,WUHU216DAVISVP2,2013-03-09 01:10:00,
2013-03-08 17:15:00,45.8,33.5,29.78,South,180,8.0,15.0,62,0.00,,,0.53,WUHU216DAVISVP2,2013-03-09 01:15:00,
2013-03-08 17:20:00,45.4,33.1,29.78,South,180,7.0,15.0,62,0.00,,,0.53,WUHU216DAVISVP2,2013-03-09 01:20:00,
2013-03-08 17:25:00,44.7,32.5,29.79,SSW,203,12.0,19.0,62,0.00,,,0.53,WUHU216DAVISVP2,2013-03-09 01:25:00,
2013-03-08 17:30:00,44.2,32.4,29.79,SSW,203,13.0,22.0,63,0.00,,,0.53,WUHU216DAVISVP2,2013-03-09 01:30:00,
2013-03-08 17:35:00,43.6,32.6,29.79,SSW,203,12.0,22.0,65,0.00,,,0.53,WUHU216DAVISVP2,2013-03-09 01:35:00,
2013-03-08 17:40:00,43.5,31.7,29.80,SW,225,12.0,22.0,63,0.00,,,0.53,WUHU216DAVISVP2,2013-03-09 01:40:00,
2013-03-08 17:45:00,43.3,31.9,29.79,SSW,203,11.0,22.0,64,0.00,,,0.53,WUHU216DAVISVP2,2013-03-09 01:45:00,
2013-03-08 17:50:00,43.4,32.4,29.79,SSW,203,9.0,22.0,65,0.00,,,0.53,WUHU216DAVISVP2,2013-03-09 01:50:00,
2013-03-08 17:55:00,43.6,31.8,29.80,SW,225,4.0,21.0,63,0.00,,,0.53,WUHU216DAVISVP2,2013-03-09 01:55:00,
2013-03-08 18:00:00,44.7,30.8,29.80,SW,225,4.0,15.0,58,0.00,,,0.53,WUHU216DAVISVP2,2013-03-09 02:00:00,
2013-03-08 18:05:00,45.0,31.1,29.80,SW,225,5.0,10.0,58,0.00,,,0.53,WUHU216DAVISVP2,2013-03-09 02:05:00,
2013-03-08 18:10:00,46.0,30.3,29.81,WNW,293,7.0,10.0,54,0.00,,,0.53,WUHU216DAVISVP2,2013-03-09 02:10:00,
2013-03-08 18:15:00,46.7,29.5,29.81,West,270,10.0,16.0,51,0.00,,,0.53,WUHU216DAVISVP2,2013-03-09 02:15:00,
2013-03-08 18:20:00,46.2,30.5,29.81,WSW,248,11.0,16.0,54,0.00,,,0.53,WUHU216DAVISVP2,2013-03-09 02:20:00,
2013-03-08 18:25:00,45.2,30.4,29.81,WSW,248,14.0,24.0,56,0.00,,,0.53,WUHU216DAVISVP2,2013-03-09 02:25:00,
2013-03-08 18:30:00,43.7,31.1,29.81,WSW,248,18.0,26.0,61,0.00,,,0.53,WUHU216DAVISVP2,2013-03-09 02:30:00,
2013-03-08 18:35:00,42.7,31.4,29.82,SW,225,21.0,26.0,64,0.00,,,0.53,WUHU216DAVISVP2,2013-03-09 02:35:00,
2013-03-08 18:40:00,42.5,31.6,29.82,SW,225,21.0,27.0,65,0.00,,,0.53,WUHU216DAVISVP2,2013-03-09 02:40:00,
2013-03-08 18:45:00,42.6,31.3,29.83,SW,225,20.0,27.0,64,0.00,,,0.53,WUHU216DAVISVP2,2013-03-09 02:45:00,
2013-03-08 18:50:00,42.4,31.5,29.83,SW,225,19.0,27.0,65,0.00,,,0.53,WUHU216DAVISVP2,2013-03-09 02:50:00,
2013-03-08 18:55:00,42.3,31.4,29.84,SW,225,19.0,25.0,65,0.00,,,0.53,WUHU216DAVISVP2,2013-03-09 02:55:00,
2013-03-08 19:00:00,42.5,31.6,29.84,SW,225,18.0,25.0,65,0.00,,,0.53,WUHU216DAVISVP2,2013-03-09 03:00:00,
2013-03-08 19:05:00,42.4,31.5,29.85,SW,225,17.0,25.0,65,0.00,,,0.53,WUHU216DAVISVP2,2013-03-09 03:05:00,
2013-03-08 19:10:00,42.4,31.5,29.85,SW,225,15.0,23.0,65,0.00,,,0.53,WUHU216DAVISVP2,2013-03-09 03:10:00,
2013-03-08 19:15:00,42.7,31.4,29.86,SW,225,15.0,22.0,64,0.00,,,0.53,WUHU216DAVISVP2,2013-03-09 03:15:00,
2013-03-08 19:20:00,42.8,31.1,29.86,WSW,248,12.0,21.0,63,0.00,,,0.53,WUHU216DAVISVP2,2013-03-09 03:20:00,
2013-03-08 19:25:00,43.6,31.0,29.86,SW,225,9.0,20.0,61,0.00,,,0.53,WUHU216DAVISVP2,2013-03-09 03:25:00,
2013-03-08 19:30:00,43.4,30.4,29.87,SW,225,5.0,16.0,60,0.00,,,0.53,WUHU216DAVISVP2,2013-03-09 03:30:00,
2013-03-08 19:35:00,43.7,29.9,29.87,SW,225,3.0,13.0,58,0.00,,,0.53,WUHU216DAVISVP2,2013-03-09 03:35:00,
2013-03-08 19:40:00,43.8,30.4,29.87,SW,225,5.0,9.0,59,0.00,,,0.53,WUHU216DAVISVP2,2013-03-09 03:40:00,
2013-03-08 19:45:00,43.6,30.2,29.87,SW,225,2.0,8.0,59,0.00,,,0.53,WUHU216DAVISVP2,2013-03-09 03:45:00,
2013-03-08 19:50:00,43.4,30.8,29.87,South,180,3.0,8.0,61,0.00,,,0.53,WUHU216DAVISVP2,2013-03-09 03:50:00,
2013-03-08 19:55:00,42.8,31.1,29.87,South,180,4.0,7.0,63,0.00,,,0.53,WUHU216DAVISVP2,2013-03-09 03:55:00,
2013-03-08 20:00:00,42.8,30.7,29.88,SW,225,4.0,8.0,62,0.00,,,0.53,WUHU216DAVISVP2,2013-03-09 04:00:00,
2013-03-08 20:05:00,42.8,30.7,29.88,SSW,203,2.0,8.0,62,0.00,,,0.53,WUHU216DAVISVP2,2013-03-09 04:05:00,
2013-03-08 20:10:00,43.4,30.0,29.88,SSW,203,2.0,8.0,59,0.00,,,0.53,WUHU216DAVISVP2,2013-03-09 04:10:00,
2013-03-08 20:15:00,43.6,29.8,29.89,SE,135,3.0,7.0,58,0.00,,,0.53,WUHU216DAVISVP2,2013-03-09 04:15:00,
2013-03-08 20:20:00,43.4,30.4,29.89,SSW,203,3.0,7.0,60,0.00,,,0.53,WUHU216DAVISVP2,2013-03-09 04:20:00,
2013-03-08 20:25:00,42.9,30.4,29.89,SW,225,7.0,16.0,61,0.00,,,0.53,WUHU216DAVISVP2,2013-03-09 04:25:00,
2013-03-08 20:30:00,43.3,30.7,29.89,SW,225,15.0,21.0,61,0.00,,,0.53,WUHU216DAVISVP2,2013-03-09 04:30:00,
2013-03-08 20:35:00,44.1,29.4,29.89,SW,225,15.0,24.0,56,0.00,,,0.53,WUHU216DAVISVP2,2013-03-09 04:35:00,
2013-03-08 20:40:00,44.9,30.6,29.90,WSW,248,13.0,29.0,57,0.00,,,0.53,WUHU216DAVISVP2,2013-03-09 04:40:00,
2013-03-08 20:49:00,44.5,30.3,29.89,SW,219,14.0,29.0,57,0.00,,,0.53,WUHU216DAVISVP2,2013-03-09 04:49:00,
2013-03-08 20:54:00,45.3,29.2,29.89,SW,235,8.0,22.0,53,0.00,,,0.53,WUHU216DAVISVP2,2013-03-09 04:54:00,
2013-03-08 20:59:00,45.5,28.9,29.89,West,271,5.0,23.0,52,0.00,,,0.53,WUHU216DAVISVP2,2013-03-09 04:59:00,
2013-03-08 21:04:00,45.4,29.3,29.90,West,267,4.0,23.0,53,0.00,,,0.53,WUHU216DAVISVP2,2013-03-09 05:04:00,
2013-03-08 21:09:00,45.2,29.1,29.90,NW,317,5.0,23.0,53,0.00,,,0.53,WUHU216DAVISVP2,2013-03-09 05:09:00,
2013-03-08 21:14:00,45.2,29.1,29.90,West,274,11.0,23.0,53,0.00,,,0.53,WUHU216DAVISVP2,2013-03-09 05:14:00,
2013-03-08 21:19:00,45.5,29.3,29.90,SW,221,5.0,13.0,53,0.00,,,0.53,WUHU216DAVISVP2,2013-03-09 05:19:00,
2013-03-08 21:24:00,45.7,29.1,29.90,SSE,163,9.0,13.0,52,0.00,,,0.53,WUHU216DAVISVP2,2013-03-09 05:24:00,
2013-03-08 21:30:00,45.2,29.1,29.89,SW,214,7.0,13.0,53,0.00,,,0.53,WUHU216DAVISVP2,2013-03-09 05:30:00,
2013-03-08 21:35:00,44.9,29.2,29.90,South,176,4.0,13.0,54,0.00,,,0.53,WUHU216DAVISVP2,2013-03-09 05:35:00,
2013-03-08 21:40:00,44.4,29.2,29.90,NW,315,7.0,12.0,55,0.00,,,0.53,WUHU216DAVISVP2,2013-03-09 05:40:00,
2013-03-08 21:45:00,44.9,29.2,29.90,NNW,336,7.0,14.0,54,0.00,,,0.53,WUHU216DAVISVP2,2013-03-09 05:45:00,
2013-03-08 21:50:00,45.2,29.1,29.90,SW,229,9.0,19.0,53,0.00,,,0.53,WUHU216DAVISVP2,2013-03-09 05:50:00,
2013-03-08 21:55:00,45.2,29.1,29.90,SSW,196,3.0,19.0,53,0.00,,,0.53,WUHU216DAVISVP2,2013-03-09 05:55:00,
2013-03-08 22:00:00,45.3,29.6,29.90,NNW,338,2.0,19.0,54,0.00,,,0.53,WUHU216DAVISVP2,2013-03-09 06:00:00,
2013-03-08 22:05:00,45.6,29.5,29.90,WNW,282,10.0,18.0,53,0.00,,,0.53,WUHU216DAVISVP2,2013-03-09 06:05:00,
2013-03-08 22:11:00,45.8,29.2,29.90,West,275,25.0,28.0,52,0.00,,,0.53,WUHU216DAVISVP2,2013-03-09 06:11:00,
2013-03-08 22:16:00,46.0,29.8,29.90,WNW,290,18.0,33.0,53,0.00,,,0.53,WUHU216DAVISVP2,2013-03-09 06:16:00,
2013-03-08 22:21:00,46.0,29.3,29.90,WNW,296,21.0,33.0,52,0.00,,,0.53,WUHU216DAVISVP2,2013-03-09 06:21:00,
2013-03-08 22:26:00,46.3,29.1,29.89,WNW,294,20.0,33.0,51,0.00,,,0.53,WUHU216DAVISVP2,2013-03-09 06:26:00,
2013-03-08 22:31:00,46.3,29.6,29.89,WNW,299,12.0,29.0,52,0.00,,,0.53,WUHU216DAVISVP2,2013-03-09 06:31:00,
2013-03-08 22:36:00,46.4,29.7,29.90,NW,306,16.0,31.0,52,0.00,,,0.53,WUHU216DAVISVP2,2013-03-09 06:36:00,
2013-03-08 22:41:00,46.4,29.2,29.89,West,260,12.0,31.0,51,0.00,,,0.53,WUHU216DAVISVP2,2013-03-09 06:41:00,
2013-03-08 22:46:00,46.4,28.7,29.89,WNW,286,28.0,34.0,50,0.00,,,0.53,WUHU216DAVISVP2,2013-03-09 06:46:00,
2013-03-08 22:51:00,46.5,29.8,29.89,West,278,16.0,34.0,52,0.00,,,0.53,WUHU216DAVISVP2,2013-03-09 06:51:00,
2013-03-08 22:56:00,46.4,29.2,29.89,WNW,293,13.0,34.0,51,0.00,,,0.53,WUHU216DAVISVP2,2013-03-09 06:56:00,
2013-03-08 23:01:00,46.4,29.2,29.89,West,281,17.0,34.0,51,0.00,,,0.53,WUHU216DAVISVP2,2013-03-09 07:01:00,
2013-03-08 23:07:00,46.3,29.1,29.89,WNW,286,16.0,33.0,51,0.00,,,0.53,WUHU216DAVISVP2,2013-03-09 07:07:00,
2013-03-08 23:12:00,46.4,28.7,29.90,WNW,297,20.0,33.0,50,0.00,,,0.53,WUHU216DAVISVP2,2013-03-09 07:12:00,
2013-03-08 23:17:00,46.7,29.5,29.90,WNW,302,12.0,33.0,51,0.00,,,0.53,WUHU216DAVISVP2,2013-03-09 07:17:00,
2013-03-08 23:22:00,46.8,29.1,29.91,WNW,286,23.0,33.0,50,0.00,,,0.53,WUHU216DAVISVP2,2013-03-09 07:22:00,
2013-03-08 23:27:00,46.6,29.4,29.91,West,267,7.0,27.0,51,0.00,,,0.53,WUHU216DAVISVP2,2013-03-09 07:27:00,
2013-03-08 23:32:00,46.5,29.3,29.92,WNW,302,4.0,27.0,51,0.00,,,0.53,WUHU216DAVISVP2,2013-03-09 07:32:00,
2013-03-08 23:37:00,46.4,29.2,29.92,WNW,291,4.0,25.0,51,0.00,,,0.53,WUHU216DAVISVP2,2013-03-09 07:37:00,
2013-03-08 23:42:00,46.3,29.1,29.92,West,265,8.0,20.0,51,0.00,,,0.53,WUHU216DAVISVP2,2013-03-09 07:42:00,
2013-03-08 23:47:00,46.4,29.2,29.92,West,274,10.0,21.0,51,0.00,,,0.53,WUHU216DAVISVP2,2013-03-09 07:47:00,
2013-03-08 23:52:00,46.4,28.7,29.92,West,276,6.0,21.0,50,0.00,,,0.53,WUHU216DAVISVP2,2013-03-09 07:52:00,
2013-03-08 23:57:00,46.4,29.2,29.93,WSW,242,11.0,21.0,51,0.00,,,0.53,WUHU216DAVISVP2,2013-03-09 07:57:00,